TimeMST,TemperatureF,Dew PointF,Humidity,Sea Level PressureIn,VisibilityMPH,Wind Direction,Wind SpeedMPH,Gust SpeedMPH,PrecipitationIn,Events,Conditions,WindDirDegrees,DateUTC
12:16 AM,35.6,15.8,44,30.08,10.0,West,12.7,-,N/A,,Clear,270,2013-02-01 07:16:00
12:36 AM,35.6,14.0,41,30.07,10.0,West,9.2,-,N/A,,Clear,270,2013-02-01 07:36:00
1:16 AM,28.4,21.2,74,30.07,10.0,North,11.5,-,N/A,,Clear,360,2013-02-01 08:16:00
1:36 AM,26.6,21.2,80,30.07,10.0,NNE,9.2,-,N/A,,Clear,30,2013-02-01 08:36:00
1:56 AM,26.6,21.2,80,30.06,10.0,North,9.2,-,N/A,,Clear,360,2013-02-01 08:56:00
2:16 AM,26.6,21.2,80,30.06,10.0,NNE,4.6,-,N/A,,Clear,30,2013-02-01 09:16:00
2:36 AM,28.4,21.2,74,30.06,10.0,NNW,4.6,-,N/A,,Clear,340,2013-02-01 09:36:00
2:56 AM,26.6,21.2,80,30.06,10.0,North,12.7,16.1,N/A,,Clear,350,2013-02-01 09:56:00
3:16 AM,30.2,21.2,69,30.05,10.0,West,8.1,-,N/A,,Clear,260,2013-02-01 10:16:00
3:36 AM,32.0,19.4,60,30.05,10.0,SSE,3.5,20.7,N/A,,Clear,160,2013-02-01 10:36:00
3:56 AM,28.4,19.4,69,30.04,10.0,WNW,5.8,-,N/A,,Clear,290,2013-02-01 10:56:00
4:16 AM,24.8,19.4,80,30.04,10.0,Calm,Calm,-,N/A,,Clear,0,2013-02-01 11:16:00
4:36 AM,23.0,21.2,93,30.04,10.0,NNW,5.8,-,N/A,,Clear,340,2013-02-01 11:36:00
5:47 AM,26.6,19.4,74,30.04,20.0,Calm,Calm,-,N/A,,Partly Cloudy,0,2013-02-01 12:47:00
6:55 AM,26.6,17.6,69,30.04,70.0,NNW,3.5,-,N/A,,Scattered Clouds,330,2013-02-01 13:55:00
7:45 AM,28.4,17.6,64,30.06,70.0,South,3.5,-,N/A,,Scattered Clouds,180,2013-02-01 14:45:00
8:48 AM,35.6,19.4,52,30.06,70.0,WSW,9.2,17.3,N/A,,Scattered Clouds,240,2013-02-01 15:48:00
9:47 AM,44.6,14.0,29,30.06,70.0,WSW,17.3,34.5,N/A,,Partly Cloudy,250,2013-02-01 16:47:00
10:47 AM,46.4,12.2,25,30.07,70.0,West,23.0,34.5,N/A,,Partly Cloudy,280,2013-02-01 17:47:00
11:47 AM,46.4,12.2,25,30.04,60.0,West,32.2,40.3,N/A,,Scattered Clouds,270,2013-02-01 18:47:00
12:48 PM,48.2,12.2,24,30.03,60.0,West,23.0,29.9,N/A,,Scattered Clouds,270,2013-02-01 19:48:00
1:55 PM,48.2,14.0,25,30.04,60.0,WSW,20.7,29.9,N/A,,Scattered Clouds,240,2013-02-01 20:55:00
2:51 PM,46.4,12.2,25,30.06,60.0,WSW,23.0,-,N/A,,Scattered Clouds,250,2013-02-01 21:51:00
3:45 PM,48.2,10.4,22,30.08,50.0,West,16.1,25.3,N/A,,Scattered Clouds,260,2013-02-01 22:45:00
4:45 PM,41.0,19.4,42,30.08,50.0,WSW,18.4,28.8,N/A,,Scattered Clouds,250,2013-02-01 23:45:00
5:45 PM,39.2,12.2,33,30.09,50.0,WNW,5.8,-,N/A,,Scattered Clouds,290,2013-02-02 00:45:00
6:50 PM,39.2,10.4,31,30.10,20.0,WNW,10.4,-,N/A,,Scattered Clouds,300,2013-02-02 01:50:00
7:45 PM,39.2,8.6,28,30.13,20.0,NNE,4.6,-,N/A,,Partly Cloudy,30,2013-02-02 02:45:00
8:45 PM,35.6,17.6,48,30.15,20.0,Calm,Calm,-,N/A,,Partly Cloudy,0,2013-02-02 03:45:00
9:45 PM,32.0,19.4,60,30.17,20.0,SW,6.9,-,N/A,,Partly Cloudy,220,2013-02-02 04:45:00
10:16 PM,33.8,19.4,56,30.17,10.0,Calm,Calm,-,N/A,,Clear,0,2013-02-02 05:16:00
10:36 PM,33.8,19.4,56,30.16,10.0,Calm,Calm,-,N/A,,Clear,0,2013-02-02 05:36:00
10:56 PM,33.8,19.4,56,30.17,10.0,SSW,10.4,-,N/A,,Clear,210,2013-02-02 05:56:00
11:15 PM,33.8,19.4,56,30.17,10.0,South,10.4,-,N/A,,Clear,190,2013-02-02 06:15:00
11:35 PM,35.6,17.6,48,30.18,10.0,South,10.4,16.1,N/A,,Clear,190,2013-02-02 06:35:00
11:55 PM,33.8,17.6,52,30.17,10.0,South,10.4,-,N/A,,Clear,170,2013-02-02 06:55:00